����������;��������(kVARh)
2018-04-30 00:00;5
2018-04-30 00:15;3,25
2018-04-30 00:30;2,6
2018-04-30 00:45;2,9
2018-04-30 01:00;2,8
2018-04-30 01:15;2,8
2018-04-30 01:30;0,95
2018-04-30 01:45;0
2018-04-30 02:00;0
2018-04-30 02:15;0
2018-04-30 02:30;0,1
2018-04-30 02:45;0,05
2018-04-30 03:00;0
2018-04-30 03:15;0,15
2018-04-30 03:30;0,6
2018-04-30 03:45;1,25
2018-04-30 04:00;1,45
2018-04-30 04:15;0,1
2018-04-30 04:30;0,45
2018-04-30 04:45;0,8
2018-04-30 05:00;1,05
2018-04-30 05:15;2,7
2018-04-30 05:30;1,15
2018-04-30 05:45;1,15
2018-04-30 06:00;2,1
2018-04-30 06:15;0,45
2018-04-30 06:30;0,3
2018-04-30 06:45;0,2
2018-04-30 07:00;0,05
2018-04-30 07:15;0,2
2018-04-30 07:30;4,7
2018-04-30 07:45;4,7
2018-04-30 08:00;8,4
2018-04-30 08:15;9,5
2018-04-30 08:30;11,05
2018-04-30 08:45;12,15
2018-04-30 09:00;17
2018-04-30 09:15;21,4
2018-04-30 09:30;23,75
2018-04-30 09:45;24,15
2018-04-30 10:00;24,65
2018-04-30 10:15;26,1
2018-04-30 10:30;24,25
2018-04-30 10:45;24,15
2018-04-30 11:00;24,9
2018-04-30 11:15;24,45
2018-04-30 11:30;27,15
2018-04-30 11:45;27,75
2018-04-30 12:00;27,8
2018-04-30 12:15;28,45
2018-04-30 12:30;28,25
2018-04-30 12:45;31,7
2018-04-30 13:00;30,5
2018-04-30 13:15;29,25
2018-04-30 13:30;30,15
2018-04-30 13:45;33,35
2018-04-30 14:00;30,45
2018-04-30 14:15;29,1
2018-04-30 14:30;32,55
2018-04-30 14:45;31,95
2018-04-30 15:00;30,75
2018-04-30 15:15;28,85
2018-04-30 15:30;28,3
2018-04-30 15:45;27,3
2018-04-30 16:00;25,8
2018-04-30 16:15;26
2018-04-30 16:30;25,6
2018-04-30 16:45;23,9
2018-04-30 17:00;22,65
2018-04-30 17:15;21,4
2018-04-30 17:30;18,85
2018-04-30 17:45;17,6
2018-04-30 18:00;14,85
2018-04-30 18:15;16,5
2018-04-30 18:30;16,4
2018-04-30 18:45;18
2018-04-30 19:00;17,05
2018-04-30 19:15;14,65
2018-04-30 19:30;16,2
2018-04-30 19:45;15,9
2018-04-30 20:00;14,95
2018-04-30 20:15;13,95
2018-04-30 20:30;12,45
2018-04-30 20:45;10,25
2018-04-30 21:00;9,95
2018-04-30 21:15;9,9
2018-04-30 21:30;8,7
2018-04-30 21:45;5,05
2018-04-30 22:00;5,75
2018-04-30 22:15;2,5
2018-04-30 22:30;3,55
2018-04-30 22:45;5,55
2018-04-30 23:00;7,05
2018-04-30 23:15;6,85
2018-04-30 23:30;5,3
2018-04-30 23:45;6,15
2018-05-01 00:00;5,25
2018-05-01 00:15;3,45
2018-05-01 00:30;0,15
2018-05-01 00:45;0,9
2018-05-01 01:00;1,25
2018-05-01 01:15;1,75
2018-05-01 01:30;0
2018-05-01 01:45;0
2018-05-01 02:00;0
2018-05-01 02:15;0,2
2018-05-01 02:30;0,25
2018-05-01 02:45;0,55
2018-05-01 03:00;1,4
2018-05-01 03:15;0,3
2018-05-01 03:30;0,9
2018-05-01 03:45;0,9
2018-05-01 04:00;1,3
2018-05-01 04:15;0,2
2018-05-01 04:30;0
2018-05-01 04:45;0
2018-05-01 05:00;0
2018-05-01 05:15;0
2018-05-01 05:30;0
2018-05-01 05:45;0
2018-05-01 06:00;0,15
2018-05-01 06:15;1,7
2018-05-01 06:30;1,1
2018-05-01 06:45;0,9
2018-05-01 07:00;1,05
2018-05-01 07:15;0,6
2018-05-01 07:30;0
2018-05-01 07:45;0,1
2018-05-01 08:00;0,05
2018-05-01 08:15;7,85
2018-05-01 08:30;10,25
2018-05-01 08:45;9,65
2018-05-01 09:00;12,1
2018-05-01 09:15;9,4
2018-05-01 09:30;8,2
2018-05-01 09:45;6,8
2018-05-01 10:00;7,6
2018-05-01 10:15;7,8
2018-05-01 10:30;7,6
2018-05-01 10:45;5,4
2018-05-01 11:00;4,65
2018-05-01 11:15;4,85
2018-05-01 11:30;4,5
2018-05-01 11:45;4,6
2018-05-01 12:00;5,95
2018-05-01 12:15;8,3
2018-05-01 12:30;8,25
2018-05-01 12:45;7
2018-05-01 13:00;8,7
2018-05-01 13:15;9,8
2018-05-01 13:30;9,45
2018-05-01 13:45;10,3
2018-05-01 14:00;12,1
2018-05-01 14:15;9,6
2018-05-01 14:30;6,95
2018-05-01 14:45;8,1
2018-05-01 15:00;7,5
2018-05-01 15:15;6,1
2018-05-01 15:30;6,7
2018-05-01 15:45;8,3
2018-05-01 16:00;7,4
2018-05-01 16:15;7,4
2018-05-01 16:30;8,65
2018-05-01 16:45;6,6
2018-05-01 17:00;6,6
2018-05-01 17:15;5,45
2018-05-01 17:30;6,1
2018-05-01 17:45;5,5
2018-05-01 18:00;4,65
2018-05-01 18:15;5,45
2018-05-01 18:30;6,7
2018-05-01 18:45;7,7
2018-05-01 19:00;7,15
2018-05-01 19:15;9,35
2018-05-01 19:30;7,7
2018-05-01 19:45;7,65
2018-05-01 20:00;7,25
2018-05-01 20:15;7,35
2018-05-01 20:30;8,2
2018-05-01 20:45;8,9
2018-05-01 21:00;7,45
2018-05-01 21:15;8,75
2018-05-01 21:30;9,55
2018-05-01 21:45;8,9
2018-05-01 22:00;8,4
2018-05-01 22:15;7,4
2018-05-01 22:30;7,2
2018-05-01 22:45;7,45
2018-05-01 23:00;7,85
2018-05-01 23:15;6,7
2018-05-01 23:30;6,45
2018-05-01 23:45;7,7
2018-05-02 00:00;6,55
2018-05-02 00:15;3,85
2018-05-02 00:30;3,15
2018-05-02 00:45;3,6
2018-05-02 01:00;3,65
2018-05-02 01:15;0,75
2018-05-02 01:30;1,2
2018-05-02 01:45;0,45
2018-05-02 02:00;0
2018-05-02 02:15;0
2018-05-02 02:30;0
2018-05-02 02:45;0
2018-05-02 03:00;0
2018-05-02 03:15;0
2018-05-02 03:30;0
2018-05-02 03:45;0
2018-05-02 04:00;0
2018-05-02 04:15;0
2018-05-02 04:30;0
2018-05-02 04:45;0
2018-05-02 05:00;0
2018-05-02 05:15;0
2018-05-02 05:30;0
2018-05-02 05:45;0
2018-05-02 06:00;0
2018-05-02 06:15;0
2018-05-02 06:30;0
2018-05-02 06:45;0
2018-05-02 07:00;0,05
2018-05-02 07:15;0,2
2018-05-02 07:30;0
2018-05-02 07:45;6,4
2018-05-02 08:00;7,05
2018-05-02 08:15;7,2
2018-05-02 08:30;6,85
2018-05-02 08:45;6,85
2018-05-02 09:00;9,15
2018-05-02 09:15;11,35
2018-05-02 09:30;13,2
2018-05-02 09:45;14,1
2018-05-02 10:00;15,45
2018-05-02 10:15;26,3
2018-05-02 10:30;47,1
2018-05-02 10:45;58,8
2018-05-02 11:00;35,95
2018-05-02 11:15;28,35
2018-05-02 11:30;39,55
2018-05-02 11:45;33,15
2018-05-02 12:00;33,4
2018-05-02 12:15;32,45
2018-05-02 12:30;34,1
2018-05-02 12:45;35,95
2018-05-02 13:00;43,3
2018-05-02 13:15;34
2018-05-02 13:30;39,2
2018-05-02 13:45;33,15
2018-05-02 14:00;33,2
2018-05-02 14:15;31,85
2018-05-02 14:30;30,4
2018-05-02 14:45;29,45
2018-05-02 15:00;25,85
2018-05-02 15:15;23,95
2018-05-02 15:30;24,65
2018-05-02 15:45;22,4
2018-05-02 16:00;21,6
2018-05-02 16:15;20,3
2018-05-02 16:30;17,7
2018-05-02 16:45;17,8
2018-05-02 17:00;15,85
2018-05-02 17:15;14,35
2018-05-02 17:30;15,15
2018-05-02 17:45;12,35
2018-05-02 18:00;11,95
2018-05-02 18:15;11,45
2018-05-02 18:30;14,3
2018-05-02 18:45;41
2018-05-02 19:00;14,2
2018-05-02 19:15;15,35
2018-05-02 19:30;12,45
2018-05-02 19:45;11,65
2018-05-02 20:00;11,15
2018-05-02 20:15;8,55
2018-05-02 20:30;7,8
2018-05-02 20:45;6,4
2018-05-02 21:00;6,75
2018-05-02 21:15;8,05
2018-05-02 21:30;8,45
2018-05-02 21:45;5,1
2018-05-02 22:00;3,7
2018-05-02 22:15;3,55
2018-05-02 22:30;2,05
2018-05-02 22:45;2
2018-05-02 23:00;0,9
2018-05-02 23:15;0,7
2018-05-02 23:30;1,2
2018-05-02 23:45;1,5
2018-05-03 00:00;0,3
2018-05-03 00:15;0,85
2018-05-03 00:30;0
2018-05-03 00:45;0,1
2018-05-03 01:00;1,2
2018-05-03 01:15;0,85
2018-05-03 01:30;0,3
2018-05-03 01:45;1,4
2018-05-03 02:00;0,8
2018-05-03 02:15;0
2018-05-03 02:30;0
2018-05-03 02:45;0
2018-05-03 03:00;0
2018-05-03 03:15;0
2018-05-03 03:30;0,05
2018-05-03 03:45;0
2018-05-03 04:00;0,15
2018-05-03 04:15;0
2018-05-03 04:30;0
2018-05-03 04:45;0
2018-05-03 05:00;0
2018-05-03 05:15;0
2018-05-03 05:30;0
2018-05-03 05:45;0,05
2018-05-03 06:00;0,15
2018-05-03 06:15;1,3
2018-05-03 06:30;1,9
2018-05-03 06:45;1,5
2018-05-03 07:00;1,7
2018-05-03 07:15;3,3
2018-05-03 07:30;6,2
2018-05-03 07:45;12,1
2018-05-03 08:00;11,95
2018-05-03 08:15;13,2
2018-05-03 08:30;15,55
2018-05-03 08:45;17,2
2018-05-03 09:00;18,1
2018-05-03 09:15;48,8
2018-05-03 09:30;33,4
2018-05-03 09:45;25,35
2018-05-03 10:00;27,85
2018-05-03 10:15;29,6
2018-05-03 10:30;40,1
2018-05-03 10:45;28,65
2018-05-03 11:00;33,75
2018-05-03 11:15;29,25
2018-05-03 11:30;29
2018-05-03 11:45;36,65
2018-05-03 12:00;33,8
2018-05-03 12:15;40,45
2018-05-03 12:30;31,65
2018-05-03 12:45;30,25
2018-05-03 13:00;36,2
2018-05-03 13:15;31,3
2018-05-03 13:30;32,1
2018-05-03 13:45;31,95
2018-05-03 14:00;32,55
2018-05-03 14:15;37
2018-05-03 14:30;38,45
2018-05-03 14:45;38,05
2018-05-03 15:00;36,65
2018-05-03 15:15;34,6
2018-05-03 15:30;31,95
2018-05-03 15:45;34,9
2018-05-03 16:00;34,05
2018-05-03 16:15;27,2
2018-05-03 16:30;31,05
2018-05-03 16:45;26,6
2018-05-03 17:00;25,1
2018-05-03 17:15;21,35
2018-05-03 17:30;21,5
2018-05-03 17:45;26,65
2018-05-03 18:00;18,65
2018-05-03 18:15;19,85
2018-05-03 18:30;14,3
2018-05-03 18:45;15,05
2018-05-03 19:00;19,7
2018-05-03 19:15;12
2018-05-03 19:30;11,85
2018-05-03 19:45;12,15
2018-05-03 20:00;9,75
2018-05-03 20:15;7,15
2018-05-03 20:30;9,05
2018-05-03 20:45;6,15
2018-05-03 21:00;4,5
2018-05-03 21:15;6,95
2018-05-03 21:30;5,95
2018-05-03 21:45;3,75
2018-05-03 22:00;1,1
2018-05-03 22:15;1,1
2018-05-03 22:30;1,1
2018-05-03 22:45;1,95
2018-05-03 23:00;2,35
2018-05-03 23:15;1,7
2018-05-03 23:30;3
2018-05-03 23:45;0,2
2018-05-04 00:00;0,05
2018-05-04 00:15;0,65
2018-05-04 00:30;1,35
2018-05-04 00:45;1,8
2018-05-04 01:00;0,15
2018-05-04 01:15;1,15
2018-05-04 01:30;1,4
2018-05-04 01:45;1,8
2018-05-04 02:00;1,65
2018-05-04 02:15;1,55
2018-05-04 02:30;0
2018-05-04 02:45;1,1
2018-05-04 03:00;0,3
2018-05-04 03:15;0,3
2018-05-04 03:30;0,8
2018-05-04 03:45;1,75
2018-05-04 04:00;1,2
2018-05-04 04:15;5,3
2018-05-04 04:30;7,2
2018-05-04 04:45;7,15
2018-05-04 05:00;8,15
2018-05-04 05:15;7,3
2018-05-04 05:30;8,3
2018-05-04 05:45;8,05
2018-05-04 06:00;8,35
2018-05-04 06:15;8,95
2018-05-04 06:30;7,95
2018-05-04 06:45;8,05
2018-05-04 07:00;7,5
2018-05-04 07:15;7,55
2018-05-04 07:30;7,35
2018-05-04 07:45;11,4
2018-05-04 08:00;13,1
2018-05-04 08:15;12,8
2018-05-04 08:30;16
2018-05-04 08:45;15,15
2018-05-04 09:00;19,15
2018-05-04 09:15;45,3
2018-05-04 09:30;29,55
2018-05-04 09:45;25
2018-05-04 10:00;33,35
2018-05-04 10:15;28,8
2018-05-04 10:30;29,9
2018-05-04 10:45;33,25
2018-05-04 11:00;33,15
2018-05-04 11:15;39,2
2018-05-04 11:30;35,75
2018-05-04 11:45;35,5
2018-05-04 12:00;32,65
2018-05-04 12:15;32,5
2018-05-04 12:30;32,9
2018-05-04 12:45;29,5
2018-05-04 13:00;29,1
2018-05-04 13:15;29,35
2018-05-04 13:30;27,9
2018-05-04 13:45;26,75
2018-05-04 14:00;29,9
2018-05-04 14:15;33,65
2018-05-04 14:30;26,05
2018-05-04 14:45;26,85
2018-05-04 15:00;26,45
2018-05-04 15:15;22,75
2018-05-04 15:30;29,75
2018-05-04 15:45;23,95
2018-05-04 16:00;28,05
2018-05-04 16:15;18,15
2018-05-04 16:30;19,1
2018-05-04 16:45;16,9
2018-05-04 17:00;20,6
2018-05-04 17:15;18,35
2018-05-04 17:30;17,8
2018-05-04 17:45;12,4
2018-05-04 18:00;11,5
2018-05-04 18:15;15
2018-05-04 18:30;7,45
2018-05-04 18:45;11,3
2018-05-04 19:00;7,45
2018-05-04 19:15;10,85
2018-05-04 19:30;13,05
2018-05-04 19:45;13,9
2018-05-04 20:00;12,1
2018-05-04 20:15;12,2
2018-05-04 20:30;13,7
2018-05-04 20:45;10,05
2018-05-04 21:00;10,05
2018-05-04 21:15;11,4
2018-05-04 21:30;12,3
2018-05-04 21:45;10,6
2018-05-04 22:00;9,5
2018-05-04 22:15;9,2
2018-05-04 22:30;6,45
2018-05-04 22:45;8,25
2018-05-04 23:00;9,45
2018-05-04 23:15;9,7
2018-05-04 23:30;10,65
2018-05-04 23:45;10,6
2018-05-05 00:00;8,05
2018-05-05 00:15;6,35
2018-05-05 00:30;4,1
2018-05-05 00:45;4,95
2018-05-05 01:00;5,75
2018-05-05 01:15;6,15
2018-05-05 01:30;7,25
2018-05-05 01:45;7,45
2018-05-05 02:00;6,85
2018-05-05 02:15;6,05
2018-05-05 02:30;6,55
2018-05-05 02:45;7,15
2018-05-05 03:00;6,5
2018-05-05 03:15;4,2
2018-05-05 03:30;3,6
2018-05-05 03:45;3,25
2018-05-05 04:00;4,4
2018-05-05 04:15;3,75
2018-05-05 04:30;3,05
2018-05-05 04:45;3,95
2018-05-05 05:00;3,55
2018-05-05 05:15;4,7
2018-05-05 05:30;2,5
2018-05-05 05:45;2,35
2018-05-05 06:00;2,25
2018-05-05 06:15;2,45
2018-05-05 06:30;2,15
2018-05-05 06:45;1,1
2018-05-05 07:00;1,35
2018-05-05 07:15;0,4
2018-05-05 07:30;0,35
2018-05-05 07:45;0
2018-05-05 08:00;4,35
2018-05-05 08:15;1,65
2018-05-05 08:30;0,3
2018-05-05 08:45;0,3
2018-05-05 09:00;0
2018-05-05 09:15;1,3
2018-05-05 09:30;8,5
2018-05-05 09:45;7,3
2018-05-05 10:00;6,9
2018-05-05 10:15;5
2018-05-05 10:30;4,8
2018-05-05 10:45;3,2
2018-05-05 11:00;3,1
2018-05-05 11:15;2,85
2018-05-05 11:30;3,35
2018-05-05 11:45;3,4
2018-05-05 12:00;2,1
2018-05-05 12:15;3,05
2018-05-05 12:30;2,9
2018-05-05 12:45;3,55
2018-05-05 13:00;1,9
2018-05-05 13:15;1,6
2018-05-05 13:30;1,2
2018-05-05 13:45;2,5
2018-05-05 14:00;3,7
2018-05-05 14:15;5
2018-05-05 14:30;6,8
2018-05-05 14:45;6,85
2018-05-05 15:00;8,1
2018-05-05 15:15;10,8
2018-05-05 15:30;13,05
2018-05-05 15:45;13,95
2018-05-05 16:00;14,15
2018-05-05 16:15;15
2018-05-05 16:30;15,8
2018-05-05 16:45;15,1
2018-05-05 17:00;13,9
2018-05-05 17:15;10,4
2018-05-05 17:30;11,3
2018-05-05 17:45;11,25
2018-05-05 18:00;10,25
2018-05-05 18:15;8,9
2018-05-05 18:30;8,45
2018-05-05 18:45;9,2
2018-05-05 19:00;11,8
2018-05-05 19:15;12,4
2018-05-05 19:30;13,9
2018-05-05 19:45;13,65
2018-05-05 20:00;13,4
2018-05-05 20:15;16,95
2018-05-05 20:30;16,55
2018-05-05 20:45;14,55
2018-05-05 21:00;13,8
2018-05-05 21:15;13,1
2018-05-05 21:30;13,5
2018-05-05 21:45;11,85
2018-05-05 22:00;7,8
2018-05-05 22:15;2,45
2018-05-05 22:30;0,85
2018-05-05 22:45;0
2018-05-05 23:00;1,65
2018-05-05 23:15;2,15
2018-05-05 23:30;2,6
2018-05-05 23:45;4,2
2018-05-06 00:00;4
2018-05-06 00:15;4,15
2018-05-06 00:30;0,05
2018-05-06 00:45;0
2018-05-06 01:00;0
2018-05-06 01:15;0
2018-05-06 01:30;0
2018-05-06 01:45;0
2018-05-06 02:00;0
2018-05-06 02:15;0
2018-05-06 02:30;0
2018-05-06 02:45;0
2018-05-06 03:00;0
2018-05-06 03:15;0
2018-05-06 03:30;0,5
2018-05-06 03:45;0,1
2018-05-06 04:00;0,3
2018-05-06 04:15;0,1
2018-05-06 04:30;0,1
2018-05-06 04:45;0,25
2018-05-06 05:00;0,05
2018-05-06 05:15;0,6
2018-05-06 05:30;0,6
2018-05-06 05:45;0,9
2018-05-06 06:00;1,2
2018-05-06 06:15;1,25
2018-05-06 06:30;0,9
2018-05-06 06:45;0,85
2018-05-06 07:00;1,15
2018-05-06 07:15;0,6
2018-05-06 07:30;0,55
2018-05-06 07:45;0,8
2018-05-06 08:00;0,2
2018-05-06 08:15;0
2018-05-06 08:30;0
2018-05-06 08:45;0
2018-05-06 09:00;0
2018-05-06 09:15;0
2018-05-06 09:30;0
2018-05-06 09:45;0
2018-05-06 10:00;0
2018-05-06 10:15;0
2018-05-06 10:30;0
2018-05-06 10:45;0
2018-05-06 11:00;0,7
2018-05-06 11:15;0,3
2018-05-06 11:30;0,8
2018-05-06 11:45;1,35
2018-05-06 12:00;3,55
2018-05-06 12:15;14,45
2018-05-06 12:30;17,6
2018-05-06 12:45;16,1
2018-05-06 13:00;15,15
2018-05-06 13:15;13,3
2018-05-06 13:30;7,4
2018-05-06 13:45;9,8
2018-05-06 14:00;11,4
2018-05-06 14:15;11,75
2018-05-06 14:30;12
2018-05-06 14:45;9,7
2018-05-06 15:00;10,85
2018-05-06 15:15;12,6
2018-05-06 15:30;12,7
2018-05-06 15:45;13,5
2018-05-06 16:00;12,95
2018-05-06 16:15;13,5
2018-05-06 16:30;13,3
2018-05-06 16:45;12,4
2018-05-06 17:00;10,95
2018-05-06 17:15;10,2
2018-05-06 17:30;10,2
2018-05-06 17:45;10,1
2018-05-06 18:00;9,55
2018-05-06 18:15;9,3
2018-05-06 18:30;9,95
2018-05-06 18:45;9,5
2018-05-06 19:00;11,55
2018-05-06 19:15;14,3
2018-05-06 19:30;15,4
2018-05-06 19:45;16,25
2018-05-06 20:00;16,1
2018-05-06 20:15;15,05
2018-05-06 20:30;15,35
2018-05-06 20:45;13,25
2018-05-06 21:00;12,4
2018-05-06 21:15;12,45
2018-05-06 21:30;12,7
2018-05-06 21:45;12,65
2018-05-06 22:00;12,45
2018-05-06 22:15;10,55
2018-05-06 22:30;6,25
2018-05-06 22:45;6,55
2018-05-06 23:00;7,85
2018-05-06 23:15;6,65
2018-05-06 23:30;5,25
2018-05-06 23:45;6,4

